{"data":{"norad_id":59401,"epoch":"2026-09-21T16:39:16.303680Z","epoch_age_seconds":61698,"freshness":"FRESH","line1":"1 59401U 24064D   26264.69393870  .00000104  00000+0  13288-4 0  9990","line2":"2 59401  43.0017  29.1061 0001244 267.5097  92.5612 15.27577913139142","mean_motion":15.27577913,"eccentricity":0.0001244,"inclination_deg":43.0017,"raan_deg":29.1061,"arg_perigee_deg":267.5097,"mean_anomaly_deg":92.5612,"bstar":1.3288e-5,"rev_number":13914,"period_min":94.266877502306,"perigee_km":482.20181294781,"apogee_km":483.90887760331,"semimajor_km":6861.1923452756,"source":"CELESTRAK","updated_at":"2026-09-22T09:00:48.913435Z"}}